Aurora, NE

9:40 AM CST on January 20, 2018 (GMT -0600)
Aurora Municipal

Weather History for KAUH - January, 2014

Change the Weather History Date:

Sunday, January 19, 2014

  Actual Average Record
Temperature  
Mean Temperature 44 °F -  
Max Temperature 67 °F 36 °F 67 °F (2014)
Min Temperature 21 °F 13 °F -9 °F (1970)
Degree Days  
Heating Degree Days 21    
Moisture  
Dew Point 18 °F    
Average Humidity 45    
Maximum Humidity 87    
Minimum Humidity 15    
Precipitation  
Precipitation 0.00 in - - ()
Sea Level Pressure  
Sea Level Pressure 29.85 in    
Wind  
Wind Speed 12 mph (West)    
Max Wind Speed 22 mph    
Max Gust Speed 29 mph    
Visibility 10 miles    
Events      
Averages and records for this station are not official NWS values.
T = Trace of Precipitation, MM = Missing Value Source: NWS Daily Summary

Daily Weather History Graph

Daily Weather History Graph

Search for Another Location

Airport or City:

Trip Planner

Search our weather history database for the weather conditions in past years. The results will help you decide how hot, cold, wet, or windy it might be!

Date:

Astronomy

Jan. 19, 2014 Rise Set
Actual Time 7:52 AM CST 5:33 PM CST
Civil Twilight 7:22 AM CST 6:03 PM CST
Nautical Twilight 6:48 AM CST 6:37 PM CST
Astronomical Twilight 6:16 AM CST 7:09 PM CST
Moon 9:14 PM CST (1/19) 9:21 AM CST (1/19)
Length of Visible Light 10h 41m
Length of Day
9h 41m
Waning Gibbous, 89% of the Moon is Illuminated
Jan 19
Waning Gibbous
Jan 23
Last Quarter
Jan 30
New
Feb 6
First Quarter
Feb 14
Full

Hourly Weather History & Observations

Time (CST) Temp. Windchill Dew Point Humidity Pressure Visibility Wind Dir Wind Speed Gust Speed Precip Events Conditions
12:15 AM 21.2 °F 11.7 °F 17.6 °F 86% 30.02 in 10.0 mi SW 8.1 mph - N/A   Clear
12:35 AM 21.0 °F 9.9 °F 17.6 °F 87% 30.01 in 10.0 mi WSW 10.4 mph - N/A   Clear
12:55 AM 21.9 °F 10.4 °F 18.3 °F 86% 29.99 in 10.0 mi SW 11.5 mph - N/A   Clear
1:15 AM 24.4 °F 14.9 °F 19.6 °F 82% 29.99 in 10.0 mi WSW 9.2 mph - N/A   Clear
1:35 AM 24.4 °F 14.9 °F 19.9 °F 83% 29.97 in 10.0 mi WSW 9.2 mph - N/A   Clear
1:55 AM 25.7 °F 14.0 °F 20.5 °F 81% 29.98 in 10.0 mi WSW 13.8 mph - N/A   Clear
2:15 AM 26.6 °F 16.2 °F 20.8 °F 79% 29.97 in 10.0 mi WSW 11.5 mph - N/A   Clear
2:35 AM 26.6 °F 16.2 °F 20.8 °F 79% 29.96 in 10.0 mi WSW 11.5 mph - N/A   Clear
2:55 AM 27.5 °F 18.0 °F 21.2 °F 77% 29.97 in 10.0 mi WSW 10.4 mph - N/A   Clear
3:15 AM 26.8 °F 17.1 °F 20.5 °F 77% 29.96 in 10.0 mi SW 10.4 mph - N/A   Clear
3:35 AM 25.7 °F 14.6 °F 19.9 °F 79% 29.95 in 10.0 mi SW 12.7 mph - N/A   Clear
3:55 AM 25.2 °F 14.4 °F 19.8 °F 80% 29.94 in 10.0 mi SW 11.5 mph - N/A   Clear
4:15 AM 26.6 °F 15.7 °F 19.4 °F 74% 29.92 in 10.0 mi SW 12.7 mph - N/A   Clear
4:35 AM 25.7 °F 14.6 °F 18.9 °F 75% 29.92 in 10.0 mi SW 12.7 mph - N/A   Clear
4:55 AM 26.8 °F 15.9 °F 18.5 °F 71% 29.91 in 10.0 mi WSW 12.7 mph - N/A   Clear
5:15 AM 27.9 °F 17.3 °F 18.3 °F 67% 29.90 in 10.0 mi WSW 12.7 mph - N/A   Clear
5:35 AM 27.9 °F 17.3 °F 18.0 °F 66% 29.89 in 10.0 mi WSW 12.7 mph - N/A   Clear
5:55 AM 27.5 °F 18.0 °F 18.0 °F 67% 29.88 in 10.0 mi WSW 10.4 mph - N/A   Clear
6:15 AM 27.5 °F 18.0 °F 18.3 °F 68% 29.87 in 10.0 mi WSW 10.4 mph - N/A   Clear
6:35 AM 28.8 °F 19.0 °F 19.2 °F 68% 29.86 in 10.0 mi WSW 11.5 mph - N/A   Clear
6:55 AM 30.2 °F 20.8 °F 19.4 °F 64% 29.86 in 10.0 mi West 11.5 mph - N/A   Clear
7:15 AM 30.9 °F 22.8 °F 19.4 °F 62% 29.86 in 10.0 mi West 9.2 mph - N/A   Clear
7:35 AM 32.0 °F 22.1 °F 19.4 °F 60% 29.86 in 10.0 mi West 13.8 mph - N/A   Clear
7:55 AM 32.0 °F 22.1 °F 19.4 °F 60% 29.85 in 10.0 mi West 13.8 mph - N/A   Clear
8:15 AM 32.0 °F 22.5 °F 19.6 °F 60% 29.85 in 10.0 mi WSW 12.7 mph - N/A   Clear
8:35 AM 32.4 °F 23.0 °F 20.1 °F 61% 29.84 in 10.0 mi West 12.7 mph - N/A   Clear
8:55 AM 34.3 °F 25.0 °F 21.0 °F 58% 29.83 in 10.0 mi West 13.8 mph - N/A   Clear
9:15 AM 36.9 °F 27.5 °F 21.4 °F 54% 29.83 in 10.0 mi West 16.1 mph - N/A   Clear
9:35 AM 39.2 °F 30.8 °F 21.6 °F 49% 29.84 in 10.0 mi West 15.0 mph - N/A   Clear
9:55 AM 42.3 °F 35.5 °F 22.1 °F 45% 29.84 in 10.0 mi West 12.7 mph - N/A   Clear
10:15 AM 45.5 °F 38.9 °F 22.3 °F 40% 29.84 in 10.0 mi West 15.0 mph 21.9 mph N/A   Clear
10:35 AM 47.3 °F - 22.1 °F 37% 29.83 in 10.0 mi West 13.8 mph - N/A   Clear
10:55 AM 49.1 °F - 22.5 °F 35% 29.84 in 10.0 mi WNW 17.3 mph - N/A   Clear
11:15 AM 51.3 °F - 22.8 °F 33% 29.84 in 10.0 mi West 16.1 mph 24.2 mph N/A   Clear
11:35 AM 53.6 °F - 23.0 °F 30% 29.82 in 10.0 mi West 15.0 mph - N/A   Clear
11:55 AM 56.5 °F - 23.0 °F 27% 29.80 in 10.0 mi West 16.1 mph - N/A   Clear
12:15 PM 58.5 °F - 23.2 °F 26% 29.80 in 10.0 mi West 16.1 mph 20.7 mph N/A   Clear
12:35 PM 60.3 °F - 23.2 °F 24% 29.79 in 10.0 mi West 16.1 mph - N/A   Clear
12:55 PM 61.9 °F - 23.0 °F 23% 29.79 in 10.0 mi WNW 17.3 mph 21.9 mph N/A   Clear
1:15 PM 63.1 °F - 23.0 °F 22% 29.78 in 10.0 mi West 17.3 mph 20.7 mph N/A   Clear
1:35 PM 64.8 °F - 22.6 °F 20% 29.77 in 10.0 mi West 18.4 mph 24.2 mph N/A   Clear
1:55 PM 65.3 °F - 21.9 °F 19% 29.76 in 10.0 mi West 18.4 mph - N/A   Clear
2:15 PM 66.4 °F - 21.2 °F 18% 29.76 in 10.0 mi WNW 15.0 mph 19.6 mph N/A   Clear
2:35 PM 67.1 °F - 20.3 °F 17% 29.75 in 10.0 mi WNW 15.0 mph 25.3 mph N/A   Clear
2:55 PM 67.5 °F - 19.4 °F 16% 29.75 in 10.0 mi WNW 17.3 mph - N/A   Clear
3:15 PM 67.1 °F - 18.0 °F 15% 29.76 in 10.0 mi NW 21.9 mph 28.8 mph N/A   Clear
3:35 PM 67.5 °F - 18.1 °F 15% 29.76 in 10.0 mi NW 17.3 mph 23.0 mph N/A   Clear
3:55 PM 67.1 °F - 17.6 °F 15% 29.77 in 10.0 mi NW 17.3 mph 23.0 mph N/A   Clear
4:15 PM 66.2 °F - 16.7 °F 15% 29.78 in 10.0 mi NW 20.7 mph 28.8 mph N/A   Clear
4:35 PM 64.9 °F - 16.3 °F 15% 29.79 in 10.0 mi NW 19.6 mph 26.5 mph N/A   Clear
4:55 PM 63.3 °F - 14.9 °F 15% 29.80 in 10.0 mi NW 17.3 mph 25.3 mph N/A   Clear
5:15 PM 61.0 °F - 14.0 °F 16% 29.80 in 10.0 mi NW 18.4 mph - N/A   Clear
5:35 PM 57.9 °F - 14.4 °F 18% 29.81 in 10.0 mi WNW 12.7 mph - N/A   Clear
5:55 PM 51.8 °F - 14.4 °F 23% 29.81 in 10.0 mi WNW 11.5 mph - N/A   Clear
6:15 PM 50.0 °F - 14.4 °F 24% 29.82 in 10.0 mi NW 10.4 mph - N/A   Clear
6:55 PM 45.5 °F 39.6 °F 13.6 °F 28% 29.83 in 10.0 mi NW 12.7 mph - N/A   Clear
7:15 PM 49.3 °F - 14.9 °F 25% 29.83 in 10.0 mi NW 15.0 mph - N/A   Clear
7:35 PM 47.7 °F - 14.0 °F 26% 29.84 in 10.0 mi NW 11.5 mph - N/A   Clear
7:55 PM 43.7 °F 38.1 °F 12.7 °F 29% 29.84 in 10.0 mi NW 10.4 mph - N/A   Clear
8:15 PM 41.9 °F 35.9 °F 11.8 °F 29% 29.84 in 10.0 mi NW 10.4 mph - N/A   Clear
8:35 PM 41.7 °F 36.1 °F 11.3 °F 29% 29.85 in 10.0 mi NW 9.2 mph - N/A   Clear
8:55 PM 38.1 °F 34.6 °F 10.4 °F 32% 29.84 in 10.0 mi WNW 4.6 mph - N/A   Clear
9:15 PM 37.8 °F 31.8 °F 10.6 °F 33% 29.84 in 10.0 mi NW 8.1 mph - N/A   Clear
9:35 PM 37.2 °F 30.0 °F 11.7 °F 35% 29.85 in 10.0 mi NW 10.4 mph - N/A   Clear
9:55 PM 36.0 °F 29.0 °F 12.0 °F 37% 29.85 in 10.0 mi NW 9.2 mph - N/A   Clear
10:15 PM 35.4 °F 29.0 °F 12.0 °F 38% 29.85 in 10.0 mi NW 8.1 mph - N/A   Clear
10:35 PM 34.3 °F 27.7 °F 11.5 °F 39% 29.85 in 10.0 mi WNW 8.1 mph - N/A   Clear
10:55 PM 35.4 °F 30.5 °F 11.8 °F 38% 29.86 in 10.0 mi WNW 5.8 mph - N/A   Clear
11:15 PM 35.8 °F 30.1 °F 12.0 °F 38% 29.86 in 10.0 mi WNW 6.9 mph - N/A   Clear
11:35 PM 35.1 °F 29.3 °F 12.0 °F 39% 29.86 in 10.0 mi NW 6.9 mph - N/A   Clear
11:55 PM 33.6 °F 28.4 °F 12.6 °F 42% 29.86 in 10.0 mi NNW 5.8 mph - N/A   Clear